User: anonymous   Login
Location: Darlington Observatory
(36.4817°N, 105.8156°W)
Time: 14:20:00
(UTC-06:00)
Language:

MOS 1 - Orbit

View from above orbital plane
View from above orbital plane
View from above satellite
View from above satellite

Ground track
Ground track

The orbit data is extracted from the following two-line orbital elements,

1 17527U 87018A   17229.94747775 -.00000251 +00000-0 -13329-3 0  9998
2 17527 099.2659 245.2588 0009624 116.4730 302.9007 14.02483623557901
Epoch (UTC): 17 August 2017 22:44:22
Eccentricity: 0.0009624
inclination: 99.2659°
perigee height: 878 km
apogee height: 892 km
right ascension of ascending node: 245.2588°
argument of perigee: 116.4730°
revolutions per day: 14.02483623
mean anomaly at epoch: 302.9007°
orbit number at epoch: 55790

The dashed part of the orbit path shows where the satellite is in the earth's shadow,  

DLR